This demonstration page uses our WeatherBlox Daily Observations layout. Learn more.

Left ArrowRight Arrow

53.62937, 11.41316

Hourly Observations for September 24, 2015

Temp ( °F °C ) Dew Point ( °F °C ) Humidity (%) Winds ( mph kmh ) Pressure ( in mb ) Visibility ( mi km ) Precip ( " mm )
6:20 am 06:20 Partly Cloudy 50 10 48 9 94 94 SW 8 13 29.97 1015 5 8 N/A
6:50 am 06:50 Mostly Cloudy 50 10 48 9 94 94 SSW 6 9 29.97 1015 4 7 N/A
7:20 am 07:20 Mostly Cloudy 48 9 48 9 100 100 SSW 8 13 29.97 1015 4 6 N/A
7:50 am 07:50 Cloudy with Fog 48 9 48 9 100 100 SSW 12 19 30.00 1016 1 1 N/A
8:20 am 08:20 Cloudy with Fog 48 9 48 9 100 100 SW 9 15 30.00 1016 0 1 N/A
8:50 am 08:50 Cloudy with Fog 50 10 50 10 100 100 SSW 7 11 30.00 1016 1 1 N/A
9:20 am 09:20 Cloudy with Mist and Fog 52 11 52 11 100 100 S 6 9 30.00 1016 2 3 N/A
9:50 am 09:50 Cloudy with Mist and Fog 54 12 54 12 100 100 SSW 8 13 30.00 1016 3 5 N/A
10:20 am 10:20 Cloudy 54 12 54 12 100 100 SSW 12 19 30.00 1016 4 7 N/A
10:50 am 10:50 Mostly Cloudy 55 13 52 11 88 88 SSW 12 19 30.03 1017 30 48 N/A
11:20 am 11:20 Mostly Cloudy 57 14 52 11 82 82 SSW 13 20 30.03 1017 30 48 N/A
11:50 am 11:50 Partly Cloudy 59 15 52 11 77 77 SSW 12 19 30.03 1017 30 48 N/A
12:20 pm 12:20 Partly Cloudy 59 15 50 10 72 72 SSW 15 24 30.00 1016 30 48 N/A
12:50 pm 12:50 Mostly Sunny 63 17 50 10 64 64 SSW 15 24 30.00 1016 30 48 N/A
1:20 pm 13:20 Mostly Cloudy 61 16 50 10 68 68 SSW 15 24 30.03 1017 30 48 N/A
1:50 pm 13:50 Partly Cloudy 63 17 50 10 64 64 SSW 13 20 30.00 1016 30 48 N/A
2:20 pm 14:20 Partly Cloudy 61 16 48 9 63 63 SSW 17 28 30.00 1016 30 48 N/A
2:50 pm 14:50 Partly Cloudy 63 17 50 10 64 64 SSW 16 26 30.00 1016 30 48 N/A
3:20 pm 15:20 Mostly Sunny 61 16 48 9 63 63 SSW 15 24 30.00 1016 30 48 N/A
3:50 pm 15:50 Partly Cloudy 61 16 48 9 63 63 SSW 13 20 30.00 1016 30 48 N/A
4:20 pm 16:20 Mostly Sunny 63 17 50 10 64 64 SSW 16 26 30.00 1016 30 48 N/A
4:50 pm 16:50 Mostly Sunny 61 16 50 10 68 68 SSW 15 24 30.00 1016 30 48 N/A
5:20 pm 17:20 Mostly Sunny 61 16 48 9 63 63 S 15 24 30.00 1016 30 48 N/A
5:50 pm 17:50 Mostly Sunny 61 16 48 9 63 63 SSW 13 20 30.00 1016 30 48 N/A
6:20 pm 18:20 Mostly Sunny 61 16 48 9 63 63 SSW 13 20 30.03 1017 30 48 N/A
6:50 pm 18:50 Mostly Sunny 59 15 50 10 72 72 S 9 15 30.00 1016 7 11 N/A

Powered by AerisWeather